Weather History for Wise, VA

Change the Weather History Date:

Sunday, February 10, 2013

  Actual Average Record
Temperature  
Mean Temperature 48 °F -  
Max Temperature 55 °F 43 °F 66 °F (1999)
Min Temperature 41 °F 27 °F 12 °F (2007)
Degree Days  
Heating Degree Days 17    
Moisture  
Dew Point 24 °F    
Average Humidity 46    
Maximum Humidity 93    
Minimum Humidity 22    
Precipitation  
Precipitation 0.00 in - - ()
Sea Level Pressure  
Sea Level Pressure 30.14 in    
Wind  
Wind Speed 11 mph (South)    
Max Wind Speed 21 mph    
Max Gust Speed 30 mph    
Visibility 10 miles    
Events Rain    
Averages and records for this station are not official NWS values.
T = Trace of Precipitation, MM = Missing Value Source: NWS Daily Summary

Daily Weather History Graph

Daily Weather History Graph

Search for Another Location

Airport:

Trip Planner

Search our weather history database for the weather conditions in past years. The results will help you decide how hot, cold, wet, or windy it might be!

Date:

Astronomy

Feb. 10, 2013 Rise Set
Actual Time 7:23 AM EST 6:05 PM EST
Civil Twilight 6:57 AM EST 6:32 PM EST
Nautical Twilight 6:26 AM EST 7:02 PM EST
Astronomical Twilight 5:56 AM EST 7:32 PM EST
Moon 7:14 AM EST (2/10) 6:52 PM EST (2/10)
Length of Visible Light 11h 34m
Length of Day
10h 41m
Waxing Crescent, 0% of the Moon is Illuminated
Feb 10
Waxing Crescent
Feb 17
First Quarter
Feb 25
Full
Mar 4
Last Quarter
Mar 11
New

Hourly Weather History & Observations

Time (EST) Temp. Windchill Dew Point Humidity Pressure Visibility Wind Dir Wind Speed Gust Speed Precip Events Conditions
12:15 AM 41.0 °F 36.4 °F 17.6 °F 39% 30.22 in 10.0 mi SSE 6.9 mph - N/A   Clear
12:35 AM 42.8 °F 38.6 °F 17.6 °F 36% 30.22 in 10.0 mi South 6.9 mph - N/A   Clear
12:55 AM 42.8 °F 39.3 °F 17.6 °F 36% 30.21 in 10.0 mi South 5.8 mph - N/A   Clear
1:15 AM 42.8 °F 39.3 °F 17.6 °F 36% 30.21 in 10.0 mi South 5.8 mph - N/A   Clear
1:35 AM 42.8 °F 38.6 °F 17.6 °F 36% 30.21 in 10.0 mi South 6.9 mph - N/A   Clear
1:55 AM 42.8 °F 38.6 °F 19.4 °F 39% 30.21 in 10.0 mi South 6.9 mph - N/A   Clear
2:15 AM 44.6 °F 40.7 °F 19.4 °F 37% 30.21 in 10.0 mi SSE 6.9 mph - N/A   Clear
2:35 AM 44.6 °F 40.2 °F 19.4 °F 37% 30.21 in 10.0 mi SSE 8.1 mph - N/A   Clear
2:55 AM 44.6 °F 39.2 °F 19.4 °F 37% 30.21 in 10.0 mi South 10.4 mph 16.1 mph N/A   Clear
3:15 AM 44.6 °F 39.2 °F 19.4 °F 37% 30.20 in 10.0 mi South 10.4 mph - N/A   Clear
3:35 AM 44.6 °F 38.1 °F 21.2 °F 39% 30.20 in 10.0 mi South 13.8 mph 19.6 mph N/A   Clear
3:55 AM 44.6 °F 38.8 °F 21.2 °F 39% 30.20 in 10.0 mi South 11.5 mph 18.4 mph N/A   Clear
4:15 AM 44.6 °F 40.2 °F 21.2 °F 39% 30.21 in 10.0 mi South 8.1 mph - N/A   Clear
4:35 AM 44.6 °F 38.8 °F 21.2 °F 39% 30.21 in 10.0 mi South 11.5 mph - N/A   Scattered Clouds
4:55 AM 44.6 °F 40.2 °F 21.2 °F 39% 30.20 in 10.0 mi SSE 8.1 mph - N/A   Clear
5:15 AM 44.6 °F 38.4 °F 21.2 °F 39% 30.20 in 10.0 mi SSE 12.7 mph 16.1 mph N/A   Scattered Clouds
5:35 AM 44.6 °F 39.7 °F 21.2 °F 39% 30.20 in 10.0 mi SSE 9.2 mph 16.1 mph N/A   Mostly Cloudy
5:55 AM 44.6 °F 39.7 °F 21.2 °F 39% 30.22 in 10.0 mi South 9.2 mph - N/A   Mostly Cloudy
6:15 AM 44.6 °F 39.7 °F 21.2 °F 39% 30.22 in 10.0 mi South 9.2 mph - N/A   Mostly Cloudy
6:35 AM 44.6 °F 40.7 °F 19.4 °F 37% 30.22 in 10.0 mi SSE 6.9 mph - N/A   Overcast
6:55 AM 44.6 °F 40.2 °F 19.4 °F 37% 30.23 in 10.0 mi SSE 8.1 mph - N/A   Mostly Cloudy
7:15 AM 44.6 °F 40.2 °F 19.4 °F 37% 30.23 in 10.0 mi South 8.1 mph - N/A   Scattered Clouds
7:35 AM 44.6 °F 39.7 °F 19.4 °F 37% 30.23 in 10.0 mi SSE 9.2 mph - N/A   Clear
7:55 AM 44.6 °F 42.2 °F 19.4 °F 37% 30.23 in 10.0 mi SSE 4.6 mph - N/A   Scattered Clouds
8:15 AM 44.6 °F 39.7 °F 19.4 °F 37% 30.21 in 10.0 mi SSE 9.2 mph - N/A   Mostly Cloudy
8:35 AM 44.6 °F 38.4 °F 19.4 °F 37% 30.24 in 10.0 mi SSW 12.7 mph - N/A   Overcast
8:55 AM 44.6 °F 41.4 °F 19.4 °F 37% 30.24 in 10.0 mi South 5.8 mph - N/A   Scattered Clouds
9:15 AM 46.4 °F 41.5 °F 19.4 °F 34% 30.23 in 10.0 mi South 10.4 mph - N/A   Scattered Clouds
9:35 AM 46.4 °F 41.9 °F 21.2 °F 37% 30.22 in 10.0 mi South 9.2 mph 17.3 mph N/A   Clear
9:55 AM 48.2 °F - 19.4 °F 32% 30.22 in 10.0 mi South 12.7 mph 19.6 mph N/A   Clear
10:15 AM 50.0 °F - 19.4 °F 30% 30.23 in 10.0 mi SSE 10.4 mph 19.6 mph N/A   Clear
10:35 AM 50.0 °F - 19.4 °F 30% 30.21 in 10.0 mi South 8.1 mph 20.7 mph N/A   Clear
10:55 AM 50.0 °F - 21.2 °F 32% 30.21 in 10.0 mi South 13.8 mph 20.7 mph N/A   Clear
11:15 AM 50.0 °F - 19.4 °F 30% 30.19 in 10.0 mi South 18.4 mph 26.5 mph N/A   Mostly Cloudy
11:35 AM 50.0 °F - 19.4 °F 30% 30.18 in 10.0 mi SSE 13.8 mph 23.0 mph N/A   Mostly Cloudy
11:55 AM 51.8 °F - 19.4 °F 28% 30.18 in 10.0 mi South 19.6 mph 27.6 mph N/A   Mostly Cloudy
12:15 PM 51.8 °F - 19.4 °F 28% 30.16 in 10.0 mi South 18.4 mph 25.3 mph N/A   Mostly Cloudy
12:35 PM 53.6 °F - 19.4 °F 26% 30.14 in 10.0 mi SSE 20.7 mph 28.8 mph N/A   Overcast
12:55 PM 53.6 °F - 19.4 °F 26% 30.14 in 10.0 mi South 15.0 mph 23.0 mph N/A   Mostly Cloudy
1:15 PM 53.6 °F - 19.4 °F 26% 30.14 in 10.0 mi South 13.8 mph 21.9 mph N/A   Mostly Cloudy
1:35 PM 55.4 °F - 19.4 °F 25% 30.10 in 10.0 mi South 11.5 mph 21.9 mph N/A   Scattered Clouds
1:55 PM 55.4 °F - 19.4 °F 25% 30.08 in 10.0 mi SSE 10.4 mph 18.4 mph N/A   Clear
2:15 PM 55.4 °F - 19.4 °F 25% 30.09 in 10.0 mi South 9.2 mph 18.4 mph N/A   Scattered Clouds
2:35 PM 55.4 °F - 17.6 °F 23% 30.08 in 10.0 mi South 17.3 mph 23.0 mph N/A   Mostly Cloudy
2:55 PM 53.6 °F - 17.6 °F 24% 30.07 in 10.0 mi South 15.0 mph 24.2 mph N/A   Mostly Cloudy
3:15 PM 53.6 °F - 15.8 °F 22% 30.06 in 10.0 mi SSE 19.6 mph 29.9 mph N/A   Overcast
3:35 PM 53.6 °F - 17.6 °F 24% 30.04 in 10.0 mi SSE 20.7 mph 24.2 mph N/A   Overcast
4:15 PM 53.6 °F - 17.6 °F 24% 30.05 in 10.0 mi South 19.6 mph 29.9 mph N/A   Scattered Clouds
4:35 PM 51.8 °F - 17.6 °F 26% 30.06 in 10.0 mi South 20.7 mph 25.3 mph N/A   Overcast
4:55 PM 51.8 °F - 19.4 °F 28% 30.07 in 10.0 mi South 16.1 mph 21.9 mph N/A   Mostly Cloudy
5:15 PM 51.8 °F - 19.4 °F 28% 30.08 in 10.0 mi South 15.0 mph 24.2 mph N/A   Overcast
5:35 PM 51.8 °F - 19.4 °F 28% 30.10 in 10.0 mi South 18.4 mph 21.9 mph N/A   Overcast
5:55 PM 46.4 °F 40.7 °F 28.4 °F 50% 30.11 in 7.0 mi South 12.7 mph 23.0 mph N/A Rain Light Rain
6:15 PM 44.6 °F 38.1 °F 32.0 °F 61% 30.11 in 7.0 mi South 13.8 mph 20.7 mph N/A Rain Light Rain
6:35 PM 42.8 °F 35.8 °F 35.6 °F 76% 30.11 in 7.0 mi South 13.8 mph 23.0 mph N/A Rain Light Rain
6:55 PM 41.0 °F 33.9 °F 35.6 °F 81% 30.09 in 7.0 mi SSE 12.7 mph 20.7 mph N/A Rain Light Rain
7:15 PM 41.0 °F 33.5 °F 35.6 °F 81% 30.07 in 10.0 mi SSE 13.8 mph 26.5 mph N/A Rain Light Rain
7:35 PM 41.0 °F 32.5 °F 37.4 °F 87% 30.04 in 10.0 mi SSE 17.3 mph 24.2 mph N/A Rain Light Rain
7:55 PM 41.0 °F 33.1 °F 37.4 °F 87% 30.05 in 10.0 mi South 15.0 mph 25.3 mph N/A   Overcast
8:15 PM 41.0 °F 33.5 °F 37.4 °F 87% 30.05 in 10.0 mi South 13.8 mph 23.0 mph N/A   Mostly Cloudy
8:35 PM 42.8 °F 35.4 °F 39.2 °F 87% 30.04 in 10.0 mi South 15.0 mph 20.7 mph N/A   Overcast
8:55 PM 42.8 °F 36.6 °F 39.2 °F 87% 30.02 in 10.0 mi South 11.5 mph 20.7 mph N/A   Overcast
9:15 PM 42.8 °F 36.2 °F 41.0 °F 93% 30.03 in 10.0 mi South 12.7 mph 18.4 mph N/A   Overcast
9:35 PM 42.8 °F 35.4 °F 41.0 °F 93% 30.01 in 10.0 mi South 15.0 mph 23.0 mph N/A   Overcast
9:55 PM 44.6 °F 37.2 °F 41.0 °F 87% 30.00 in 10.0 mi South 17.3 mph 24.2 mph N/A   Mostly Cloudy
10:15 PM 44.6 °F 38.1 °F 41.0 °F 87% 30.02 in 10.0 mi South 13.8 mph 25.3 mph N/A   Mostly Cloudy
10:35 PM 44.6 °F 38.8 °F 41.0 °F 87% 30.01 in 10.0 mi South 11.5 mph - N/A   Overcast
10:55 PM 44.6 °F 38.4 °F 41.0 °F 87% 30.00 in 10.0 mi SSE 12.7 mph 19.6 mph N/A   Overcast
11:15 PM 44.6 °F 38.8 °F 41.0 °F 87% 29.99 in 10.0 mi South 11.5 mph 17.3 mph N/A   Overcast
11:35 PM 46.4 °F 40.4 °F 42.8 °F 87% 29.97 in 10.0 mi SSE 13.8 mph 20.7 mph N/A   Overcast
11:55 PM 46.4 °F 41.1 °F 42.8 °F 87% 29.98 in 10.0 mi SSE 11.5 mph - N/A   Overcast